Year,Month,Day,Hour,Minute,Value (Times are PST for insolation in W/m^2)
2010,08,09,00,00,0.00
2010,08,09,00,01,0.00
2010,08,09,00,02,0.00
2010,08,09,00,03,0.00
2010,08,09,00,04,0.00
2010,08,09,00,05,0.00
2010,08,09,00,06,0.00
2010,08,09,00,07,0.00
2010,08,09,00,08,0.00
2010,08,09,00,09,0.00
2010,08,09,00,10,0.00
2010,08,09,00,11,0.00
2010,08,09,00,12,0.00
2010,08,09,00,13,0.00
2010,08,09,00,14,0.00
2010,08,09,00,15,0.00
2010,08,09,00,16,0.00
2010,08,09,00,17,0.00
2010,08,09,00,18,0.00
2010,08,09,00,19,0.00
2010,08,09,00,20,0.00
2010,08,09,00,21,0.00
2010,08,09,00,22,0.00
2010,08,09,00,23,0.00
2010,08,09,00,24,0.00
2010,08,09,00,25,0.00
2010,08,09,00,26,0.00
2010,08,09,00,27,0.00
2010,08,09,00,28,0.00
2010,08,09,00,29,0.00
2010,08,09,00,30,0.00
2010,08,09,00,31,0.00
2010,08,09,00,32,0.00
2010,08,09,00,33,0.00
2010,08,09,00,34,0.00
2010,08,09,00,35,0.00
2010,08,09,00,36,0.00
2010,08,09,00,37,0.00
2010,08,09,00,38,0.00
2010,08,09,00,39,0.00
2010,08,09,00,40,0.00
2010,08,09,00,41,0.00
2010,08,09,00,42,0.00
2010,08,09,00,43,0.00
2010,08,09,00,44,0.00
2010,08,09,00,45,0.00
2010,08,09,00,46,0.00
2010,08,09,00,47,0.00
2010,08,09,00,48,0.00
2010,08,09,00,49,0.00
2010,08,09,00,50,0.00
2010,08,09,00,51,0.00
2010,08,09,00,52,0.00
2010,08,09,00,53,0.00
2010,08,09,00,54,0.00
2010,08,09,00,55,0.00
2010,08,09,00,56,0.00
2010,08,09,00,57,0.00
2010,08,09,00,58,0.00
2010,08,09,00,59,0.00
2010,08,09,01,00,0.00
2010,08,09,01,01,0.00
2010,08,09,01,02,0.00
2010,08,09,01,03,0.00
2010,08,09,01,04,0.00
2010,08,09,01,05,0.00
2010,08,09,01,06,0.00
2010,08,09,01,07,0.00
2010,08,09,01,08,0.00
2010,08,09,01,09,0.00
2010,08,09,01,10,0.00
2010,08,09,01,11,0.00
2010,08,09,01,12,0.00
2010,08,09,01,13,0.00
2010,08,09,01,14,0.00
2010,08,09,01,15,0.00
2010,08,09,01,16,0.00
2010,08,09,01,17,0.00
2010,08,09,01,18,0.00
2010,08,09,01,19,0.00
2010,08,09,01,20,0.00
2010,08,09,01,21,0.00
2010,08,09,01,22,0.00
2010,08,09,01,23,0.00
2010,08,09,01,24,0.00
2010,08,09,01,25,0.00
2010,08,09,01,26,0.00
2010,08,09,01,27,0.00
2010,08,09,01,28,0.00
2010,08,09,01,29,0.00
2010,08,09,01,30,0.00
2010,08,09,01,31,0.00
2010,08,09,01,32,0.00
2010,08,09,01,33,0.00
2010,08,09,01,34,0.00
2010,08,09,01,35,0.00
2010,08,09,01,36,0.00
2010,08,09,01,37,0.00
2010,08,09,01,38,0.00
2010,08,09,01,39,0.00
2010,08,09,01,40,0.00
2010,08,09,01,41,0.00
2010,08,09,01,42,0.00
2010,08,09,01,43,0.00
2010,08,09,01,44,0.00
2010,08,09,01,45,0.00
2010,08,09,01,46,0.00
2010,08,09,01,47,0.00
2010,08,09,01,48,0.00
2010,08,09,01,49,0.00
2010,08,09,01,50,0.00
2010,08,09,01,51,0.00
2010,08,09,01,52,0.00
2010,08,09,01,53,0.00
2010,08,09,01,54,0.00
2010,08,09,01,55,0.00
2010,08,09,01,56,0.00
2010,08,09,01,57,0.00
2010,08,09,01,58,0.00
2010,08,09,01,59,0.00
2010,08,09,02,00,0.00
2010,08,09,02,01,0.00
2010,08,09,02,02,0.00
2010,08,09,02,03,0.00
2010,08,09,02,04,0.00
2010,08,09,02,05,0.00
2010,08,09,02,06,0.00
2010,08,09,02,07,0.00
2010,08,09,02,08,0.00
2010,08,09,02,09,0.00
2010,08,09,02,10,0.00
2010,08,09,02,11,0.00
2010,08,09,02,12,0.00
2010,08,09,02,13,0.00
2010,08,09,02,14,0.00
2010,08,09,02,15,0.00
2010,08,09,02,16,0.00
2010,08,09,02,17,0.00
2010,08,09,02,18,0.00
2010,08,09,02,19,0.00
2010,08,09,02,20,0.00
2010,08,09,02,21,0.00
2010,08,09,02,22,0.00
2010,08,09,02,23,0.00
2010,08,09,02,24,0.00
2010,08,09,02,25,0.00
2010,08,09,02,26,0.00
2010,08,09,02,27,0.00
2010,08,09,02,28,0.00
2010,08,09,02,29,0.00
2010,08,09,02,30,0.00
2010,08,09,02,31,0.00
2010,08,09,02,32,0.00
2010,08,09,02,33,0.00
2010,08,09,02,34,0.00
2010,08,09,02,35,0.00
2010,08,09,02,36,0.00
2010,08,09,02,37,0.00
2010,08,09,02,38,0.00
2010,08,09,02,39,0.00
2010,08,09,02,40,0.00
2010,08,09,02,41,0.00
2010,08,09,02,42,0.00
2010,08,09,02,43,0.00
2010,08,09,02,44,0.00
2010,08,09,02,45,0.00
2010,08,09,02,46,0.00
2010,08,09,02,47,0.00
2010,08,09,02,48,0.00
2010,08,09,02,49,0.00
2010,08,09,02,50,0.00
2010,08,09,02,51,0.00
2010,08,09,02,52,0.00
2010,08,09,02,53,0.00
2010,08,09,02,54,0.00
2010,08,09,02,55,0.00
2010,08,09,02,56,0.00
2010,08,09,02,57,0.00
2010,08,09,02,58,0.00
2010,08,09,02,59,0.00
2010,08,09,03,00,0.00
2010,08,09,03,01,0.00
2010,08,09,03,02,0.00
2010,08,09,03,03,0.00
2010,08,09,03,04,0.00
2010,08,09,03,05,0.00
2010,08,09,03,06,0.00
2010,08,09,03,07,0.00
2010,08,09,03,08,0.00
2010,08,09,03,09,0.00
2010,08,09,03,10,0.00
2010,08,09,03,11,0.00
2010,08,09,03,12,0.00
2010,08,09,03,13,0.00
2010,08,09,03,14,0.00
2010,08,09,03,15,0.00
2010,08,09,03,16,0.00
2010,08,09,03,17,0.00
2010,08,09,03,18,0.00
2010,08,09,03,19,0.00
2010,08,09,03,20,0.00
2010,08,09,03,21,0.00
2010,08,09,03,22,0.00
2010,08,09,03,23,0.00
2010,08,09,03,24,0.00
2010,08,09,03,25,0.00
2010,08,09,03,26,0.00
2010,08,09,03,27,0.00
2010,08,09,03,28,0.00
2010,08,09,03,29,0.00
2010,08,09,03,30,0.00
2010,08,09,03,31,0.00
2010,08,09,03,32,0.00
2010,08,09,03,33,0.00
2010,08,09,03,34,0.00
2010,08,09,03,35,0.00
2010,08,09,03,36,0.00
2010,08,09,03,37,0.00
2010,08,09,03,38,0.00
2010,08,09,03,39,0.00
2010,08,09,03,40,0.00
2010,08,09,03,41,0.00
2010,08,09,03,42,0.00
2010,08,09,03,43,0.00
2010,08,09,03,44,0.00
2010,08,09,03,45,0.00
2010,08,09,03,46,0.00
2010,08,09,03,47,0.00
2010,08,09,03,48,0.00
2010,08,09,03,49,0.00
2010,08,09,03,50,0.00
2010,08,09,03,51,0.00
2010,08,09,03,52,0.00
2010,08,09,03,53,0.00
2010,08,09,03,54,0.00
2010,08,09,03,55,0.00
2010,08,09,03,56,0.00
2010,08,09,03,57,0.00
2010,08,09,03,58,0.00
2010,08,09,03,59,0.00
2010,08,09,04,00,0.00
2010,08,09,04,01,0.00
2010,08,09,04,02,0.00
2010,08,09,04,03,0.00
2010,08,09,04,04,0.00
2010,08,09,04,05,0.00
2010,08,09,04,06,0.00
2010,08,09,04,07,0.00
2010,08,09,04,08,0.00
2010,08,09,04,09,0.00
2010,08,09,04,10,0.00
2010,08,09,04,11,0.00
2010,08,09,04,12,0.00
2010,08,09,04,13,0.00
2010,08,09,04,14,0.00
2010,08,09,04,15,0.00
2010,08,09,04,16,0.00
2010,08,09,04,17,0.00
2010,08,09,04,18,0.00
2010,08,09,04,19,0.00
2010,08,09,04,20,0.00
2010,08,09,04,21,0.00
2010,08,09,04,22,0.00
2010,08,09,04,23,0.00
2010,08,09,04,24,0.00
2010,08,09,04,25,0.00
2010,08,09,04,26,0.00
2010,08,09,04,27,0.00
2010,08,09,04,28,0.00
2010,08,09,04,29,0.00
2010,08,09,04,30,0.00
2010,08,09,04,31,0.00
2010,08,09,04,32,0.00
2010,08,09,04,33,0.00
2010,08,09,04,34,0.00
2010,08,09,04,35,0.00
2010,08,09,04,36,0.00
2010,08,09,04,37,0.00
2010,08,09,04,38,0.00
2010,08,09,04,39,0.00
2010,08,09,04,40,0.00
2010,08,09,04,41,0.00
2010,08,09,04,42,0.00
2010,08,09,04,43,0.00
2010,08,09,04,44,0.00
2010,08,09,04,45,0.00
2010,08,09,04,46,0.00
2010,08,09,04,47,0.00
2010,08,09,04,48,0.00
2010,08,09,04,49,0.00
2010,08,09,04,50,0.00
2010,08,09,04,51,0.00
2010,08,09,04,52,0.00
2010,08,09,04,53,0.00
2010,08,09,04,54,0.00
2010,08,09,04,55,0.00
2010,08,09,04,56,0.00
2010,08,09,04,57,0.00
2010,08,09,04,58,0.00
2010,08,09,04,59,0.00
2010,08,09,05,00,0.00
2010,08,09,05,01,0.00
2010,08,09,05,02,0.00
2010,08,09,05,03,0.00
2010,08,09,05,04,0.00
2010,08,09,05,05,0.00
2010,08,09,05,06,0.00
2010,08,09,05,07,0.00
2010,08,09,05,08,0.00
2010,08,09,05,09,0.00
2010,08,09,05,10,0.00
2010,08,09,05,11,0.00
2010,08,09,05,12,0.00
2010,08,09,05,13,0.00
2010,08,09,05,14,0.00
2010,08,09,05,15,0.00
2010,08,09,05,16,0.00
2010,08,09,05,17,0.00
2010,08,09,05,18,0.00
2010,08,09,05,19,0.00
2010,08,09,05,20,0.00
2010,08,09,05,21,0.00
2010,08,09,05,22,0.00
2010,08,09,05,23,0.00
2010,08,09,05,24,0.00
2010,08,09,05,25,0.00
2010,08,09,05,26,0.00
2010,08,09,05,27,0.00
2010,08,09,05,28,0.00
2010,08,09,05,29,0.00
2010,08,09,05,30,0.00
2010,08,09,05,31,0.00
2010,08,09,05,32,0.00
2010,08,09,05,33,0.00
2010,08,09,05,34,0.00
2010,08,09,05,35,0.00
2010,08,09,05,36,0.00
2010,08,09,05,37,0.00
2010,08,09,05,38,0.00
2010,08,09,05,39,0.00
2010,08,09,05,40,0.00
2010,08,09,05,41,0.00
2010,08,09,05,42,0.00
2010,08,09,05,43,0.00
2010,08,09,05,44,0.00
2010,08,09,05,45,0.00
2010,08,09,05,46,0.00
2010,08,09,05,47,0.00
2010,08,09,05,48,0.00
2010,08,09,05,49,0.00
2010,08,09,05,50,0.00
2010,08,09,05,51,0.00
2010,08,09,05,52,0.00
2010,08,09,05,53,0.00
2010,08,09,05,54,0.00
2010,08,09,05,55,0.00
2010,08,09,05,56,0.00
2010,08,09,05,57,0.00
2010,08,09,05,58,0.00
2010,08,09,05,59,0.00
2010,08,09,06,00,0.00
2010,08,09,06,01,0.00
2010,08,09,06,02,0.00
2010,08,09,06,03,0.00
2010,08,09,06,04,0.00
2010,08,09,06,05,0.00
2010,08,09,06,06,0.00
2010,08,09,06,07,0.00
2010,08,09,06,08,0.00
2010,08,09,06,09,0.00
2010,08,09,06,10,0.00
2010,08,09,06,11,0.00
2010,08,09,06,12,0.00
2010,08,09,06,13,4.50
2010,08,09,06,14,5.00
2010,08,09,06,15,5.00
2010,08,09,06,16,5.00
2010,08,09,06,17,6.30
2010,08,09,06,18,7.00
2010,08,09,06,19,7.00
2010,08,09,06,20,7.00
2010,08,09,06,21,7.70
2010,08,09,06,22,9.00
2010,08,09,06,23,9.00
2010,08,09,06,24,9.00
2010,08,09,06,25,9.20
2010,08,09,06,26,11.00
2010,08,09,06,27,11.00
2010,08,09,06,28,11.50
2010,08,09,06,29,12.00
2010,08,09,06,30,12.00
2010,08,09,06,31,12.20
2010,08,09,06,32,14.00
2010,08,09,06,33,14.00
2010,08,09,06,34,15.20
2010,08,09,06,35,16.00
2010,08,09,06,36,17.70
2010,08,09,06,37,18.10
2010,08,09,06,38,19.00
2010,08,09,06,39,19.00
2010,08,09,06,40,20.20
2010,08,09,06,41,21.00
2010,08,09,06,42,22.70
2010,08,09,06,43,23.00
2010,08,09,06,44,23.50
2010,08,09,06,45,25.00
2010,08,09,06,46,25.00
2010,08,09,06,47,25.70
2010,08,09,06,48,26.00
2010,08,09,06,49,26.30
2010,08,09,06,50,28.00
2010,08,09,06,51,28.00
2010,08,09,06,52,29.30
2010,08,09,06,53,30.00
2010,08,09,06,54,30.00
2010,08,09,06,55,30.40
2010,08,09,06,56,32.00
2010,08,09,06,57,32.50
2010,08,09,06,58,33.00
2010,08,09,06,59,34.50
2010,08,09,07,00,35.10
2010,08,09,07,01,37.00
2010,08,09,07,02,37.70
2010,08,09,07,03,39.50
2010,08,09,07,04,41.40
2010,08,09,07,05,42.00
2010,08,09,07,06,44.00
2010,08,09,07,07,44.60
2010,08,09,07,08,47.70
2010,08,09,07,09,50.00
2010,08,09,07,10,52.40
2010,08,09,07,11,53.80
2010,08,09,07,12,56.20
2010,08,09,07,13,58.50
2010,08,09,07,14,60.80
2010,08,09,07,15,62.00
2010,08,09,07,16,62.70
2010,08,09,07,17,64.70
2010,08,09,07,18,69.00
2010,08,09,07,19,70.60
2010,08,09,07,20,72.80
2010,08,09,07,21,75.20
2010,08,09,07,22,78.20
2010,08,09,07,23,80.80
2010,08,09,07,24,83.00
2010,08,09,07,25,83.90
2010,08,09,07,26,86.80
2010,08,09,07,27,89.10
2010,08,09,07,28,90.00
2010,08,09,07,29,91.00
2010,08,09,07,30,93.30
2010,08,09,07,31,95.60
2010,08,09,07,32,97.50
2010,08,09,07,33,99.30
2010,08,09,07,34,103.20
2010,08,09,07,35,109.00
2010,08,09,07,36,114.40
2010,08,09,07,37,116.00
2010,08,09,07,38,121.80
2010,08,09,07,39,135.80
2010,08,09,07,40,129.00
2010,08,09,07,41,122.80
2010,08,09,07,42,119.60
2010,08,09,07,43,117.30
2010,08,09,07,44,114.90
2010,08,09,07,45,114.00
2010,08,09,07,46,114.00
2010,08,09,07,47,114.00
2010,08,09,07,48,119.30
2010,08,09,07,49,142.80
2010,08,09,07,50,131.30
2010,08,09,07,51,113.30
2010,08,09,07,52,109.60
2010,08,09,07,53,103.80
2010,08,09,07,54,100.70
2010,08,09,07,55,97.00
2010,08,09,07,56,97.00
2010,08,09,07,57,97.00
2010,08,09,07,58,97.00
2010,08,09,07,59,96.80
2010,08,09,08,00,93.90
2010,08,09,08,01,90.60
2010,08,09,08,02,90.60
2010,08,09,08,03,92.50
2010,08,09,08,04,96.60
2010,08,09,08,05,98.30
2010,08,09,08,06,100.60
2010,08,09,08,07,102.00
2010,08,09,08,08,102.00
2010,08,09,08,09,103.40
2010,08,09,08,10,105.00
2010,08,09,08,11,107.40
2010,08,09,08,12,109.00
2010,08,09,08,13,109.00
2010,08,09,08,14,109.00
2010,08,09,08,15,109.00
2010,08,09,08,16,109.00
2010,08,09,08,17,109.00
2010,08,09,08,18,109.00
2010,08,09,08,19,109.00
2010,08,09,08,20,110.30
2010,08,09,08,21,111.00
2010,08,09,08,22,111.00
2010,08,09,08,23,111.40
2010,08,09,08,24,113.40
2010,08,09,08,25,114.00
2010,08,09,08,26,115.40
2010,08,09,08,27,116.00
2010,08,09,08,28,115.80
2010,08,09,08,29,113.40
2010,08,09,08,30,110.30
2010,08,09,08,31,106.90
2010,08,09,08,32,104.30
2010,08,09,08,33,100.60
2010,08,09,08,34,96.60
2010,08,09,08,35,92.50
2010,08,09,08,36,90.60
2010,08,09,08,37,88.90
2010,08,09,08,38,86.60
2010,08,09,08,39,84.30
2010,08,09,08,40,83.00
2010,08,09,08,41,83.00
2010,08,09,08,42,82.20
2010,08,09,08,43,79.80
2010,08,09,08,44,79.00
2010,08,09,08,45,79.00
2010,08,09,08,46,79.00
2010,08,09,08,47,79.00
2010,08,09,08,48,79.00
2010,08,09,08,49,77.70
2010,08,09,08,50,77.00
2010,08,09,08,51,77.00
2010,08,09,08,52,76.80
2010,08,09,08,53,76.00
2010,08,09,08,54,76.00
2010,08,09,08,55,76.00
2010,08,09,08,56,76.00
2010,08,09,08,57,75.90
2010,08,09,08,58,74.00
2010,08,09,08,59,74.00
2010,08,09,09,00,74.00
2010,08,09,09,01,74.00
2010,08,09,09,02,74.00
2010,08,09,09,03,72.10
2010,08,09,09,04,72.50
2010,08,09,09,05,74.00
2010,08,09,09,06,74.00
2010,08,09,09,07,74.00
2010,08,09,09,08,74.00
2010,08,09,09,09,74.00
2010,08,09,09,10,73.60
2010,08,09,09,11,72.00
2010,08,09,09,12,73.10
2010,08,09,09,13,74.00
2010,08,09,09,14,75.70
2010,08,09,09,15,76.00
2010,08,09,09,16,76.00
2010,08,09,09,17,76.00
2010,08,09,09,18,76.00
2010,08,09,09,19,76.00
2010,08,09,09,20,76.80
2010,08,09,09,21,75.80
2010,08,09,09,22,73.40
2010,08,09,09,23,70.70
2010,08,09,09,24,67.80
2010,08,09,09,25,65.60
2010,08,09,09,26,63.20
2010,08,09,09,27,63.00
2010,08,09,09,28,62.70
2010,08,09,09,29,62.00
2010,08,09,09,30,62.00
2010,08,09,09,31,62.70
2010,08,09,09,32,63.00
2010,08,09,09,33,63.00
2010,08,09,09,34,63.00
2010,08,09,09,35,63.00
2010,08,09,09,36,61.20
2010,08,09,09,37,60.00
2010,08,09,09,38,56.60
2010,08,09,09,39,55.60
2010,08,09,09,40,54.00
2010,08,09,09,41,54.00
2010,08,09,09,42,54.00
2010,08,09,09,43,54.00
2010,08,09,09,44,54.20
2010,08,09,09,45,56.40
2010,08,09,09,46,58.70
2010,08,09,09,47,60.00
2010,08,09,09,48,58.60
2010,08,09,09,49,58.00
2010,08,09,09,50,56.00
2010,08,09,09,51,54.00
2010,08,09,09,52,54.70
2010,08,09,09,53,56.00
2010,08,09,09,54,58.70
2010,08,09,09,55,61.70
2010,08,09,09,56,65.20
2010,08,09,09,57,67.50
2010,08,09,09,58,69.40
2010,08,09,09,59,71.20
2010,08,09,10,00,72.00
2010,08,09,10,01,72.00
2010,08,09,10,02,76.00
2010,08,09,10,03,76.30
2010,08,09,10,04,77.80
2010,08,09,10,05,80.20
2010,08,09,10,06,83.20
2010,08,09,10,07,87.60
2010,08,09,10,08,91.30
2010,08,09,10,09,93.60
2010,08,09,10,10,95.90
2010,08,09,10,11,98.90
2010,08,09,10,12,103.70
2010,08,09,10,13,112.20
2010,08,09,10,14,122.10
2010,08,09,10,15,130.70
2010,08,09,10,16,139.40
2010,08,09,10,17,144.50
2010,08,09,10,18,146.00
2010,08,09,10,19,142.10
2010,08,09,10,20,137.90
2010,08,09,10,21,132.80
2010,08,09,10,22,129.00
2010,08,09,10,23,128.00
2010,08,09,10,24,129.60
2010,08,09,10,25,134.10
2010,08,09,10,26,139.60
2010,08,09,10,27,142.70
2010,08,09,10,28,144.00
2010,08,09,10,29,145.30
2010,08,09,10,30,147.60
2010,08,09,10,31,155.20
2010,08,09,10,32,167.80
2010,08,09,10,33,183.80
2010,08,09,10,34,196.00
2010,08,09,10,35,204.80
2010,08,09,10,36,212.10
2010,08,09,10,37,220.40
2010,08,09,10,38,228.80
2010,08,09,10,39,239.10
2010,08,09,10,40,258.20
2010,08,09,10,41,292.90
2010,08,09,10,42,348.60
2010,08,09,10,43,402.90
2010,08,09,10,44,399.10
2010,08,09,10,45,333.90
2010,08,09,10,46,286.90
2010,08,09,10,47,269.40
2010,08,09,10,48,264.30
2010,08,09,10,49,262.30
2010,08,09,10,50,264.30
2010,08,09,10,51,264.60
2010,08,09,10,52,264.60
2010,08,09,10,53,265.00
2010,08,09,10,54,275.40
2010,08,09,10,55,291.60
2010,08,09,10,56,317.50
2010,08,09,10,57,339.50
2010,08,09,10,58,330.40
2010,08,09,10,59,287.50
2010,08,09,11,00,232.90
2010,08,09,11,01,200.00
2010,08,09,11,02,185.00
2010,08,09,11,03,172.90
2010,08,09,11,04,157.60
2010,08,09,11,05,151.80
2010,08,09,11,06,149.50
2010,08,09,11,07,154.10
2010,08,09,11,08,160.60
2010,08,09,11,09,168.20
2010,08,09,11,10,173.10
2010,08,09,11,11,177.20
2010,08,09,11,12,181.60
2010,08,09,11,13,190.90
2010,08,09,11,14,203.40
2010,08,09,11,15,215.90
2010,08,09,11,16,223.40
2010,08,09,11,17,226.70
2010,08,09,11,18,224.80
2010,08,09,11,19,222.50
2010,08,09,11,20,220.60
2010,08,09,11,21,220.00
2010,08,09,11,22,217.30
2010,08,09,11,23,211.80
2010,08,09,11,24,206.90
2010,08,09,11,25,205.50
2010,08,09,11,26,204.80
2010,08,09,11,27,207.70
2010,08,09,11,28,210.50
2010,08,09,11,29,213.70
2010,08,09,11,30,218.80
2010,08,09,11,31,224.30
2010,08,09,11,32,227.90
2010,08,09,11,33,229.60
2010,08,09,11,34,232.90
2010,08,09,11,35,232.10
2010,08,09,11,36,226.60
2010,08,09,11,37,224.40
2010,08,09,11,38,223.00
2010,08,09,11,39,225.50
2010,08,09,11,40,227.00
2010,08,09,11,41,231.90
2010,08,09,11,42,241.30
2010,08,09,11,43,253.50
2010,08,09,11,44,265.70
2010,08,09,11,45,283.40
2010,08,09,11,46,312.10
2010,08,09,11,47,342.60
2010,08,09,11,48,366.80
2010,08,09,11,49,387.00
2010,08,09,11,50,387.00
2010,08,09,11,51,474.60
2010,08,09,11,52,455.00
2010,08,09,11,53,467.10
2010,08,09,11,54,476.00
2010,08,09,11,55,476.00
2010,08,09,11,56,476.00
2010,08,09,11,57,476.00
2010,08,09,11,58,476.00
2010,08,09,11,59,526.50
2010,08,09,12,00,956.00
2010,08,09,12,01,956.00
2010,08,09,12,02,956.00
2010,08,09,12,03,851.30
2010,08,09,12,04,803.00
2010,08,09,12,05,596.00
2010,08,09,12,06,596.00
2010,08,09,12,07,596.00
2010,08,09,12,08,596.00
2010,08,09,12,09,739.70
2010,08,09,12,10,791.00
2010,08,09,12,11,791.00
2010,08,09,12,12,791.00
2010,08,09,12,13,821.20
2010,08,09,12,14,852.80
2010,08,09,12,15,845.30
2010,08,09,12,16,843.20
2010,08,09,12,17,851.00
2010,08,09,12,18,809.30
2010,08,09,12,19,823.00
2010,08,09,12,20,823.00
2010,08,09,12,21,560.10
2010,08,09,12,22,558.00
2010,08,09,12,23,614.80
2010,08,09,12,24,794.80
2010,08,09,12,25,786.60
2010,08,09,12,26,781.50
2010,08,09,12,27,780.00
2010,08,09,12,28,785.80
2010,08,09,12,29,789.80
2010,08,09,12,30,794.80
2010,08,09,12,31,804.30
2010,08,09,12,32,819.60
2010,08,09,12,33,743.20
2010,08,09,12,34,821.00
2010,08,09,12,35,817.80
2010,08,09,12,36,804.20
2010,08,09,12,37,799.80
2010,08,09,12,38,800.90
2010,08,09,12,39,801.70
2010,08,09,12,40,805.00
2010,08,09,12,41,813.40
2010,08,09,12,42,838.30
2010,08,09,12,43,863.70
2010,08,09,12,44,881.00
2010,08,09,12,45,875.10
2010,08,09,12,46,895.90
2010,08,09,12,47,949.00
2010,08,09,12,48,861.80
2010,08,09,12,49,742.00
2010,08,09,12,50,668.30
2010,08,09,12,51,642.00
2010,08,09,12,52,764.50
2010,08,09,12,53,802.90
2010,08,09,12,54,742.00
2010,08,09,12,55,742.00
2010,08,09,12,56,742.00
2010,08,09,12,57,742.00
2010,08,09,12,58,704.70
2010,08,09,12,59,502.90
2010,08,09,13,00,499.80
2010,08,09,13,01,523.80
2010,08,09,13,02,564.80
2010,08,09,13,03,572.50
2010,08,09,13,04,604.50
2010,08,09,13,05,611.30
2010,08,09,13,06,562.70
2010,08,09,13,07,552.60
2010,08,09,13,08,548.50
2010,08,09,13,09,547.30
2010,08,09,13,10,550.80
2010,08,09,13,11,553.30
2010,08,09,13,12,551.40
2010,08,09,13,13,520.80
2010,08,09,13,14,526.30
2010,08,09,13,15,557.20
2010,08,09,13,16,589.20
2010,08,09,13,17,527.30
2010,08,09,13,18,545.00
2010,08,09,13,19,545.00
2010,08,09,13,20,749.60
2010,08,09,13,21,777.40
2010,08,09,13,22,687.00
2010,08,09,13,23,687.00
2010,08,09,13,24,687.00
2010,08,09,13,25,626.60
2010,08,09,13,26,588.90
2010,08,09,13,27,630.80
2010,08,09,13,28,619.00
2010,08,09,13,29,619.00
2010,08,09,13,30,619.00
2010,08,09,13,31,619.00
2010,08,09,13,32,619.00
2010,08,09,13,33,613.50
2010,08,09,13,34,584.00
2010,08,09,13,35,584.00
2010,08,09,13,36,818.00
2010,08,09,13,37,1030.20
2010,08,09,13,38,1049.00
2010,08,09,13,39,1011.60
2010,08,09,13,40,812.00
2010,08,09,13,41,951.70
2010,08,09,13,42,1153.70
2010,08,09,13,43,1181.00
2010,08,09,13,44,783.10
2010,08,09,13,45,708.60
2010,08,09,13,46,512.00
2010,08,09,13,47,512.00
2010,08,09,13,48,512.00
2010,08,09,13,49,726.70
2010,08,09,13,50,784.00
2010,08,09,13,51,806.90
2010,08,09,13,52,893.00
2010,08,09,13,53,893.00
2010,08,09,13,54,897.80
2010,08,09,13,55,900.00
2010,08,09,13,56,891.90
2010,08,09,13,57,812.20
2010,08,09,13,58,793.80
2010,08,09,13,59,795.00
2010,08,09,14,00,795.00
2010,08,09,14,01,779.80
2010,08,09,14,02,779.10
2010,08,09,14,03,779.80
2010,08,09,14,04,777.30
2010,08,09,14,05,773.30
2010,08,09,14,06,770.50
2010,08,09,14,07,772.50
2010,08,09,14,08,774.70
2010,08,09,14,09,772.70
2010,08,09,14,10,772.00
2010,08,09,14,11,772.60
2010,08,09,14,12,772.30
2010,08,09,14,13,772.80
2010,08,09,14,14,772.20
2010,08,09,14,15,772.70
2010,08,09,14,16,772.00
2010,08,09,14,17,772.00
2010,08,09,14,18,772.00
2010,08,09,14,19,775.00
2010,08,09,14,20,785.80
2010,08,09,14,21,795.20
2010,08,09,14,22,796.70
2010,08,09,14,23,793.00
2010,08,09,14,24,796.90
2010,08,09,14,25,805.20
2010,08,09,14,26,818.00
2010,08,09,14,27,826.00
2010,08,09,14,28,826.00
2010,08,09,14,29,826.00
2010,08,09,14,30,826.00
2010,08,09,14,31,642.30
2010,08,09,14,32,701.00
2010,08,09,14,33,775.80
2010,08,09,14,34,904.00
2010,08,09,14,35,586.20
2010,08,09,14,36,495.00
2010,08,09,14,37,541.00
2010,08,09,14,38,541.00
2010,08,09,14,39,541.00
2010,08,09,14,40,541.00
2010,08,09,14,41,868.70
2010,08,09,14,42,1020.00
2010,08,09,14,43,1020.00
2010,08,09,14,44,872.40
2010,08,09,14,45,430.80
2010,08,09,14,46,394.90
2010,08,09,14,47,397.00
2010,08,09,14,48,396.10
2010,08,09,14,49,405.30
2010,08,09,14,50,463.40
2010,08,09,14,51,511.40
2010,08,09,14,52,492.00
2010,08,09,14,53,409.40
2010,08,09,14,54,357.00
2010,08,09,14,55,355.00
2010,08,09,14,56,375.20
2010,08,09,14,57,394.20
2010,08,09,14,58,359.40
2010,08,09,14,59,330.10
2010,08,09,15,00,288.60
2010,08,09,15,01,267.10
2010,08,09,15,02,260.00
2010,08,09,15,03,570.70
2010,08,09,15,04,924.40
2010,08,09,15,05,930.00
2010,08,09,15,06,699.60
2010,08,09,15,07,700.00
2010,08,09,15,08,758.20
2010,08,09,15,09,855.60
2010,08,09,15,10,853.00
2010,08,09,15,11,853.00
2010,08,09,15,12,805.80
2010,08,09,15,13,381.00
2010,08,09,15,14,517.30
2010,08,09,15,15,751.00
2010,08,09,15,16,433.50
2010,08,09,15,17,287.80
2010,08,09,15,18,306.90
2010,08,09,15,19,308.00
2010,08,09,15,20,308.00
2010,08,09,15,21,308.00
2010,08,09,15,22,371.60
2010,08,09,15,23,392.20
2010,08,09,15,24,382.50
2010,08,09,15,25,384.80
2010,08,09,15,26,404.00
2010,08,09,15,27,362.30
2010,08,09,15,28,326.80
2010,08,09,15,29,311.50
2010,08,09,15,30,298.10
2010,08,09,15,31,287.30
2010,08,09,15,32,277.00
2010,08,09,15,33,267.90
2010,08,09,15,34,264.30
2010,08,09,15,35,264.00
2010,08,09,15,36,265.00
2010,08,09,15,37,264.20
2010,08,09,15,38,262.00
2010,08,09,15,39,258.80
2010,08,09,15,40,253.80
2010,08,09,15,41,253.00
2010,08,09,15,42,258.00
2010,08,09,15,43,264.80
2010,08,09,15,44,276.70
2010,08,09,15,45,289.90
2010,08,09,15,46,305.80
2010,08,09,15,47,388.50
2010,08,09,15,48,400.00
2010,08,09,15,49,376.00
2010,08,09,15,50,335.50
2010,08,09,15,51,295.00
2010,08,09,15,52,747.40
2010,08,09,15,53,868.10
2010,08,09,15,54,871.90
2010,08,09,15,55,925.00
2010,08,09,15,56,925.00
2010,08,09,15,57,925.00
2010,08,09,15,58,925.00
2010,08,09,15,59,918.10
2010,08,09,16,00,854.20
2010,08,09,16,01,853.80
2010,08,09,16,02,855.40
2010,08,09,16,03,851.00
2010,08,09,16,04,654.20
2010,08,09,16,05,605.00
2010,08,09,16,06,605.00
2010,08,09,16,07,605.00
2010,08,09,16,08,605.00
2010,08,09,16,09,773.70
2010,08,09,16,10,850.50
2010,08,09,16,11,838.00
2010,08,09,16,12,836.50
2010,08,09,16,13,829.80
2010,08,09,16,14,819.10
2010,08,09,16,15,798.50
2010,08,09,16,16,716.50
2010,08,09,16,17,619.00
2010,08,09,16,18,619.00
2010,08,09,16,19,716.20
2010,08,09,16,20,835.00
2010,08,09,16,21,835.00
2010,08,09,16,22,388.00
2010,08,09,16,23,351.00
2010,08,09,16,24,378.10
2010,08,09,16,25,369.00
2010,08,09,16,26,433.40
2010,08,09,16,27,403.50
2010,08,09,16,28,381.00
2010,08,09,16,29,381.00
2010,08,09,16,30,339.40
2010,08,09,16,31,238.00
2010,08,09,16,32,200.80
2010,08,09,16,33,192.00
2010,08,09,16,34,172.50
2010,08,09,16,35,162.00
2010,08,09,16,36,168.60
2010,08,09,16,37,184.70
2010,08,09,16,38,183.20
2010,08,09,16,39,173.80
2010,08,09,16,40,192.00
2010,08,09,16,41,192.00
2010,08,09,16,42,192.00
2010,08,09,16,43,192.00
2010,08,09,16,44,192.00
2010,08,09,16,45,192.00
2010,08,09,16,46,193.80
2010,08,09,16,47,193.20
2010,08,09,16,48,180.30
2010,08,09,16,49,192.90
2010,08,09,16,50,140.10
2010,08,09,16,51,135.00
2010,08,09,16,52,162.00
2010,08,09,16,53,238.50
2010,08,09,16,54,406.50
2010,08,09,16,55,392.00
2010,08,09,16,56,197.40
2010,08,09,16,57,131.00
2010,08,09,16,58,134.00
2010,08,09,16,59,128.30
2010,08,09,17,00,120.10
2010,08,09,17,01,134.60
2010,08,09,17,02,143.40
2010,08,09,17,03,144.00
2010,08,09,17,04,144.00
2010,08,09,17,05,271.60
2010,08,09,17,06,547.50
2010,08,09,17,07,541.90
2010,08,09,17,08,538.00
2010,08,09,17,09,538.00
2010,08,09,17,10,538.00
2010,08,09,17,11,411.30
2010,08,09,17,12,176.00
2010,08,09,17,13,176.00
2010,08,09,17,14,444.80
2010,08,09,17,15,512.00